TimeEDT,TemperatureF,Dew PointF,Humidity,Sea Level PressureIn,VisibilityMPH,Wind Direction,Wind SpeedMPH,Gust SpeedMPH,PrecipitationIn,Events,Conditions,WindDirDegrees,DateUTC
12:54 AM,53.1,51.1,93,29.99,10.0,Calm,Calm,-,N/A,,Mostly Cloudy,0,2013-10-18 04:54:00
1:54 AM,53.1,51.1,93,30.00,10.0,SW,5.8,-,N/A,,Mostly Cloudy,220,2013-10-18 05:54:00
2:54 AM,53.1,50.0,89,30.01,10.0,WSW,6.9,-,N/A,,Overcast,240,2013-10-18 06:54:00
3:54 AM,52.0,50.0,93,30.01,10.0,Calm,Calm,-,0.00,,Overcast,0,2013-10-18 07:54:00
4:54 AM,51.1,50.0,96,30.02,10.0,Calm,Calm,-,N/A,,Overcast,0,2013-10-18 08:54:00
5:24 AM,50.0,48.2,94,30.02,4.0,Calm,Calm,-,N/A,,Scattered Clouds,0,2013-10-18 09:24:00
5:54 AM,48.9,48.9,100,30.03,6.0,Calm,Calm,-,N/A,,Partly Cloudy,0,2013-10-18 09:54:00
6:54 AM,46.0,46.0,100,30.04,5.0,Calm,Calm,-,N/A,,Scattered Clouds,0,2013-10-18 10:54:00
7:54 AM,45.0,45.0,100,30.05,4.0,Calm,Calm,-,N/A,,Scattered Clouds,0,2013-10-18 11:54:00
8:02 AM,46.4,46.4,100,30.04,1.0,Calm,Calm,-,N/A,,Scattered Clouds,0,2013-10-18 12:02:00
8:25 AM,46.4,46.4,100,30.05,0.2,Calm,Calm,-,N/A,Fog,Fog,0,2013-10-18 12:25:00
8:39 AM,46.4,46.4,100,30.06,0.2,SSW,3.5,-,N/A,Fog,Fog,200,2013-10-18 12:39:00
8:54 AM,46.9,46.9,100,30.07,0.2,Calm,Calm,-,N/A,Fog,Fog,0,2013-10-18 12:54:00
9:54 AM,50.0,50.0,100,30.09,1.5,Calm,Calm,-,N/A,,Mostly Cloudy,0,2013-10-18 13:54:00
10:13 AM,51.8,51.8,100,30.09,7.0,Calm,Calm,-,N/A,,Mostly Cloudy,0,2013-10-18 14:13:00
10:39 AM,53.6,50.0,88,30.09,10.0,SSW,3.5,-,N/A,,Mostly Cloudy,210,2013-10-18 14:39:00
10:54 AM,54.0,48.9,83,30.08,10.0,SSW,4.6,-,N/A,,Scattered Clouds,200,2013-10-18 14:54:00
11:54 AM,55.9,44.1,64,30.07,10.0,West,5.8,-,N/A,,Scattered Clouds,260,2013-10-18 15:54:00
12:54 PM,59.0,41.0,51,30.06,10.0,Variable,5.8,-,0.00,,Scattered Clouds,0,2013-10-18 16:54:00
1:54 PM,57.9,43.0,58,30.04,10.0,SW,5.8,-,N/A,,Scattered Clouds,220,2013-10-18 17:54:00
2:54 PM,62.1,41.0,46,30.01,10.0,Calm,Calm,-,N/A,,Scattered Clouds,0,2013-10-18 18:54:00
3:54 PM,62.1,43.0,50,30.00,10.0,WSW,5.8,-,N/A,,Scattered Clouds,240,2013-10-18 19:54:00
4:54 PM,61.0,41.0,48,29.99,10.0,SSW,4.6,-,N/A,,Scattered Clouds,200,2013-10-18 20:54:00
5:54 PM,61.0,41.0,48,29.99,10.0,WSW,3.5,-,N/A,,Scattered Clouds,240,2013-10-18 21:54:00
6:54 PM,55.9,44.1,64,29.99,10.0,Calm,Calm,-,N/A,,Scattered Clouds,0,2013-10-18 22:54:00
7:54 PM,51.1,46.0,83,30.00,10.0,Calm,Calm,-,N/A,,Partly Cloudy,0,2013-10-18 23:54:00
8:54 PM,48.9,46.0,90,30.01,10.0,Calm,Calm,-,N/A,,Partly Cloudy,0,2013-10-19 00:54:00
9:54 PM,46.9,46.0,97,30.02,10.0,Calm,Calm,-,N/A,,Partly Cloudy,0,2013-10-19 01:54:00
10:54 PM,46.0,45.0,96,30.01,10.0,Calm,Calm,-,N/A,,Partly Cloudy,0,2013-10-19 02:54:00
11:54 PM,44.1,44.1,100,30.00,9.0,Calm,Calm,-,N/A,,Partly Cloudy,0,2013-10-19 03:54:00